Location: Newark
(58.9986°N, 38.5006°E)
Time: 04:33:50
(UTC+00:00)

N. Korean satellite - Pass Details

Date: 11 December 2019
Orbit: 454 x 507 km, 97.2° (Epoch: 24 January)

Event Time Altitude Azimuth Distance (km) Brightness Sun altitude
Rises 13:40:31 0° 151° (SSE) 2,605 10.3 -7.9°
Reaches altitude 10° 13:42:37 10° 147° (SSE) 1,721 9.3 -8.1°
Maximum altitude 13:46:15 55° 69° (ENE) 614 6.7 -8.5°
Drops below altitude 10° 13:49:52 10° 352° (N) 1,713 9.1 -8.9°
Sets 13:51:58 0° 348° (NNW) 2,592 10.1 -9.1°
